User: anonymous   Login
Location: Cluj-Napoca
(46.7712°N, 23.6236°E)
Time: 17:05:09
(UTC+02:00)
Language:

XW-2B - Orbit

View from above orbital plane
View from above orbital plane
View from above satellite
View from above satellite

Ground track
Ground track

The orbit data is extracted from the following two-line orbital elements,

1 40911U 15049N   21332.18039446  .00001857  00000-0  95794-4 0  9999
2 40911  97.4896 333.0928 0013171 343.7163  83.2607 15.17534860342317
Epoch (UTC): 28 November 2021 04:19:46
Eccentricity: 0.0013171
inclination: 97.4896°
perigee height: 504 km
apogee height: 522 km
right ascension of ascending node: 333.0928°
argument of perigee: 343.7163°
revolutions per day: 15.17534860
mean anomaly at epoch: 83.2607°
orbit number at epoch: 34231

The dashed part of the orbit path shows where the satellite is in the earth's shadow,  

DLR